Location: ??
(35.5090°N, 139.6783°E)
Time: 02:47:12
(UTC+00:00)

NOSS 3-4 (C) - Pass Details

Date: 08 November 2025
Orbit: 773 x 1438 km, 63.4° (Epoch: 02 December)

Event Time Altitude Azimuth Distance (km) Brightness Sun altitude
Rises 08:17:59 0° 336° (NNW) 3,771 6.7 -8.2°
Reaches altitude 10° 08:20:41 10° 344° (NNW) 2,915 6.0 -8.7°
Maximum altitude 08:27:09 37° 51° (NE) 1,765 4.4 -10.0°
Drops below altitude 10° 08:34:31 10° 117° (ESE) 3,343 5.8 -11.5°
Sets 08:37:49 0° 125° (SE) 4,389 6.5 -12.1°
